Location: Unspecified
(0.0000°N, 0.0000°E)
Time: 04:30:18
(UTC+01:00)

Atlas Centaur 2 - Visible Passes

Search period start: 18 February 2018 00:00
Search period end: 28 February 2018 00:00
Orbit: 459 x 1312 km, 30.4° (Epoch: 17 February)

Date Brightness Start Highest point End Pass type
(mag) Time Alt. Az. Time Alt. Az. Time Alt. Az.
18 Feb 4.1 06:01:58 10° S 06:03:25 12° SSE 06:04:47 10° SE visible
18 Feb 3.9 20:36:59 10° WNW 20:45:00 47° SSW 20:52:58 10° SE visible
18 Feb 5.1 22:30:55 10° WSW 22:35:25 15° SSW 22:35:48 15° SSW visible
19 Feb 3.7 05:57:20 10° SSW 06:00:13 18° SSE 06:02:50 10° ESE visible
19 Feb 4.3 20:33:52 10° W 20:41:29 38° SSW 20:49:08 10° SE visible
19 Feb 5.3 22:29:01 10° SW 22:32:09 12° SSW 22:33:21 12° SSW visible
20 Feb 3.2 05:53:16 10° SSW 05:57:00 26° SSE 06:00:14 10° E visible
20 Feb 4.6 20:30:55 10° W 20:38:01 30° SSW 20:45:13 10° SSE visible
21 Feb 2.4 05:50:55 18° SSW 05:53:46 40° SSE 05:57:22 10° E visible
21 Feb 4.9 20:28:09 10° WSW 20:34:36 25° SSW 20:41:13 10° SSE visible
22 Feb 1.7 05:48:38 33° SW 05:50:28 64° SSE 05:54:19 10° ENE visible
22 Feb 5.1 20:25:35 10° WSW 20:31:15 20° SSW 20:37:05 10° SSE visible
23 Feb 1.3 05:46:18 58° WSW 05:47:09 83° NNW 05:51:06 10° NE visible
23 Feb 5.3 20:23:18 10° WSW 20:27:58 16° SSW 20:32:47 10° SSE visible
24 Feb 1.6 05:43:53 55° NNW 05:43:53 55° NNW 05:47:46 10° NE visible
24 Feb 5.3 20:21:27 10° SW 20:24:46 13° SSW 20:28:10 10° S visible
25 Feb 2.5 05:41:23 33° N 05:41:23 33° N 05:44:17 10° NE visible
25 Feb 5.6 20:21:26 10° SSW 20:21:38 10° SSW 20:21:50 10° SSW visible
26 Feb 3.3 05:38:46 21° N 05:38:46 21° N 05:40:40 10° NNE visible
27 Feb 3.8 05:36:02 14° N 05:36:02 14° N 05:36:53 10° NNE visible
